This is the latest recevied weather packets stored in our database for station/object N5SRF. If no packets are shown the sender has not sent any weather packets the latest 10 day(s).
| Time | Temp. | Humidity | Pressure | Rain* | Wind** | Luminosity | Snow |
|---|---|---|---|---|---|---|---|
| 1777506207 | 26.11° C | 97% | 1013.3 hPa | 0 mm | - | 72 W/m² | - |
| 1777505905 | 26.11° C | 97% | 1013.2 hPa | 0 mm | - | 77 W/m² | - |
| 1777505600 | 26.11° C | 97% | 1013.1 hPa | 0 mm | - | 59 W/m² | - |
| 1777505297 | 26.11° C | 97% | 1013.1 hPa | 0 mm | - | 29 W/m² | - |
| 1777504994 | 26.11° C | 97% | 1013.4 hPa | 0 mm | - | 27 W/m² | - |
| 1777504691 | 26.11° C | 97% | 1013 hPa | 0 mm | - | 23 W/m² | - |
| 1777504388 | 26.11° C | 96% | 1013 hPa | 0 mm | - | 38 W/m² | - |
| 1777504083 | 26.11° C | 96% | 1012.8 hPa | 0 mm | - | 40 W/m² | - |
| 1777503779 | 26.11° C | 95% | 1013 hPa | 0 mm | - | 61 W/m² | - |
| 1777503475 | 26.11° C | 94% | 1012.9 hPa | 0 mm | - | 25 W/m² | - |
| 1777503171 | 26.11° C | 94% | 1013 hPa | 0 mm | - | 29 W/m² | - |
| 1777502869 | 26.67° C | 93% | 1013.2 hPa | 0 mm | - | 20 W/m² | - |
| 1777502567 | 27.22° C | 93% | 1013 hPa | 1.27 mm | - | 43 W/m² | - |
| 1777502263 | 26.67° C | 92% | 1013 hPa | 1.27 mm | - | 89 W/m² | - |
| 1777501960 | 27.22° C | 91% | 1013 hPa | 0 mm | - | 45 W/m² | - |
| 1777501657 | 27.22° C | 90% | 1013.8 hPa | 0 mm | - | 11 W/m² | - |
| 1777501354 | 27.22° C | 90% | 1013.6 hPa | 0 mm | - | 31 W/m² | - |
| 1777501052 | 27.22° C | 89% | 1013.9 hPa | 0 mm | - | 66 W/m² | - |
| 1777500750 | 27.78° C | 88% | 1013.8 hPa | 0 mm | - | 37 W/m² | - |
| 1777500446 | 27.78° C | 88% | 1013.8 hPa | 0 mm | - | 30 W/m² | - |
| 1777500142 | 27.78° C | 87% | 1013.3 hPa | 0 mm | - | 108 W/m² | - |
| 1777499840 | 27.78° C | 87% | 1013.8 hPa | 0 mm | - | 56 W/m² | - |
| 1777499535 | 27.78° C | 86% | 1013.8 hPa | 0 mm | - | 91 W/m² | - |
| 1777499234 | 27.78° C | 85% | 1014 hPa | 0 mm | - | 80 W/m² | - |
| 1777498931 | 27.78° C | 85% | 1013.9 hPa | 0 mm | - | 56 W/m² | - |
* Rain latest hour (hover to see other rain measurements)
** Current wind speed in m/s (hover to see current wind gust speed)